New Roads False River Regiona, LA

2:17 PM CDT on October 14, 2019 (GMT -0500)
False River

Weather History for KHZR - September, 2019

Change the Weather History Date:

Monday, September 23, 2019

  Actual Average (WUND) Record (WUND)
Temperature  
Mean Temperature 79 °F -  
Max Temperature 89 °F - - (-1)
Min Temperature 69 °F - - (-1)
Cooling Degree Days 14    
Growing Degree Days 29 (Base 50)    
Moisture  
Dew Point 70 °F    
Average Humidity 75    
Maximum Humidity 100    
Minimum Humidity 49    
Precipitation  
Precipitation 0.00 in - - ()
Sea Level Pressure  
Sea Level Pressure 30.06 in    
Wind  
Wind Speed 1 mph ()    
Max Wind Speed 6 mph    
Max Gust Speed -    
Visibility 9.6 miles    
Events      
Averages and records for this station are not official NWS values.
T = Trace of Precipitation, MM = Missing Value Source: Averaged Metar Reports

Daily Weather History Graph

Daily Weather History Graph

Search for Another Location

Airport or City:

Astronomy

Sep. 23, 2019 Rise Set
Actual Time 6:54 AM CDT 7:01 PM CDT
Civil Twilight 6:30 AM CDT 7:25 PM CDT
Nautical Twilight 6:02 AM CDT 7:53 PM CDT
Astronomical Twilight 5:34 AM CDT 8:21 PM CDT
Moon 1:03 AM CDT (9/23) 3:30 PM CDT (9/23)
Length of Visible Light 12h 54m
Length of Day
12h 06m
Waning Crescent, 33% of the Moon is Illuminated
Sep 23
Waning Crescent
Sep 28
New
Oct 5
First Quarter
Oct 13
Full
Oct 21
Last Quarter

Hourly Weather History & Observations

Time (CDT) Temp. Heat Index Dew Point Humidity Pressure Visibility Wind Dir Wind Speed Gust Speed Precip Events Conditions
12:17 AM 75.2 °F - 71.6 °F 89% 30.08 in 10.0 mi Calm Calm - N/A   Clear
12:37 AM 73.4 °F - 71.6 °F 94% 30.08 in 10.0 mi Calm Calm - N/A   Clear
12:57 AM 73.4 °F - 71.6 °F 94% 30.07 in 10.0 mi Calm Calm - N/A   Clear
1:17 AM 73.4 °F - 71.6 °F 94% 30.07 in 10.0 mi Calm Calm - N/A   Clear
1:57 AM 71.6 °F - 71.6 °F 100% 30.07 in 10.0 mi Calm Calm - N/A   Clear
2:17 AM 71.6 °F - 71.6 °F 100% 30.07 in 10.0 mi Calm Calm - N/A   Clear
2:37 AM 71.6 °F - 71.6 °F 100% 30.07 in 10.0 mi Calm Calm - N/A   Clear
2:57 AM 71.6 °F - 71.6 °F 100% 30.06 in 10.0 mi Calm Calm - N/A   Clear
3:39 AM 73.4 °F - 71.6 °F 94% 30.05 in 10.0 mi SE 3.5 mph - N/A   Clear
3:57 AM 73.4 °F - 71.6 °F 94% 30.04 in 10.0 mi SSE 3.5 mph - N/A   Clear
4:19 AM 73.4 °F - 71.6 °F 94% 30.05 in 10.0 mi Calm Calm - N/A   Clear
4:57 AM 69.8 °F - 69.8 °F 100% 30.05 in 10.0 mi Calm Calm - N/A   Clear
5:17 AM 69.8 °F - 69.8 °F 100% 30.05 in 10.0 mi North 3.5 mph - N/A   Clear
5:37 AM 69.8 °F - 69.8 °F 100% 30.06 in 7.0 mi Calm Calm - N/A   Clear
5:59 AM 69.8 °F - 69.8 °F 100% 30.07 in 7.0 mi Calm Calm - N/A   Clear
6:17 AM 69.8 °F - 69.8 °F 100% 30.07 in 7.0 mi Calm Calm - N/A   Clear
6:37 AM 69.8 °F - 69.8 °F 100% 30.07 in 7.0 mi Calm Calm - N/A   Clear
7:37 AM 71.6 °F - 71.6 °F 100% 30.08 in 5.0 mi Calm Calm - N/A   Clear
7:57 AM 71.6 °F - 71.6 °F 100% 30.09 in 7.0 mi Calm Calm - N/A   Unknown
8:19 AM 73.4 °F - 73.4 °F 100% 30.09 in 7.0 mi Calm Calm - N/A   Unknown
8:37 AM 75.2 °F - 73.4 °F 94% 30.10 in 10.0 mi Calm Calm - N/A   Unknown
8:59 AM 77.0 °F - 73.4 °F 89% 30.10 in 10.0 mi Calm Calm - N/A   Unknown
9:18 AM 78.8 °F - 73.4 °F 83% 30.10 in 10.0 mi SE 3.5 mph - N/A   Unknown
9:37 AM 80.6 °F 85.4 °F 73.4 °F 79% 30.11 in 10.0 mi Calm Calm - N/A   Clear
10:17 AM 82.4 °F 86.3 °F 69.8 °F 66% 30.12 in 10.0 mi SSE 3.5 mph - N/A   Clear
10:39 AM 82.4 °F 86.3 °F 69.8 °F 66% 30.12 in 10.0 mi South 3.5 mph - N/A   Clear
10:57 AM 84.2 °F 88.4 °F 69.8 °F 62% 30.12 in 10.0 mi SSW 3.5 mph - N/A   Clear
11:17 AM 84.2 °F 87.3 °F 68.0 °F 58% 30.11 in 10.0 mi SSE 3.5 mph - N/A   Clear
11:37 AM 84.2 °F 87.3 °F 68.0 °F 58% 30.11 in 10.0 mi South 4.6 mph - N/A   Clear
11:57 AM 86.0 °F 88.2 °F 66.2 °F 51% 30.10 in 10.0 mi SE 5.8 mph - N/A   Clear
12:19 PM 86.0 °F 88.2 °F 66.2 °F 51% 30.10 in 10.0 mi ESE 5.8 mph - N/A   Clear
12:39 PM 87.8 °F 90.4 °F 66.2 °F 49% 30.09 in 10.0 mi East 3.5 mph - N/A   Clear
12:57 PM 86.0 °F 88.2 °F 66.2 °F 51% 30.08 in 10.0 mi Calm Calm - N/A   Clear
1:17 PM 87.8 °F 90.4 °F 66.2 °F 49% 30.07 in 10.0 mi Calm Calm - N/A   Scattered Clouds
1:37 PM 87.8 °F 91.4 °F 68.0 °F 52% 30.07 in 10.0 mi NE 3.5 mph - N/A   Clear
2:17 PM 87.8 °F 91.4 °F 68.0 °F 52% 30.05 in 10.0 mi Calm Calm - N/A   Clear
2:37 PM 87.8 °F 90.4 °F 66.2 °F 49% 30.05 in 10.0 mi Calm Calm - N/A   Scattered Clouds
3:19 PM 87.8 °F 90.4 °F 66.2 °F 49% 30.03 in 10.0 mi Calm Calm - N/A   Scattered Clouds
3:39 PM 87.8 °F 91.4 °F 68.0 °F 52% 30.03 in 10.0 mi Calm Calm - N/A   Scattered Clouds
4:17 PM 87.8 °F 90.4 °F 66.2 °F 49% 30.02 in 10.0 mi Calm Calm - N/A   Overcast
4:37 PM 87.8 °F 91.4 °F 68.0 °F 52% 30.02 in 10.0 mi Calm Calm - N/A   Scattered Clouds
4:57 PM 87.8 °F 91.4 °F 68.0 °F 52% 30.01 in 10.0 mi Calm Calm - N/A   Scattered Clouds
5:17 PM 89.6 °F 93.4 °F 68.0 °F 49% 30.01 in 10.0 mi Calm Calm - N/A   Scattered Clouds
5:37 PM 89.6 °F 93.4 °F 68.0 °F 49% 30.01 in 10.0 mi Calm Calm - N/A   Mostly Cloudy
6:57 PM 84.2 °F 87.3 °F 68.0 °F 58% 30.00 in 10.0 mi SSE 3.5 mph - N/A   Clear
7:17 PM 84.2 °F 88.4 °F 69.8 °F 62% 30.00 in 10.0 mi Calm Calm - N/A   Clear
7:37 PM 80.6 °F 83.9 °F 69.8 °F 70% 30.00 in 10.0 mi Calm Calm - N/A   Clear
7:57 PM 78.8 °F - 71.6 °F 78% 30.01 in 10.0 mi Calm Calm - N/A   Clear
8:17 PM 78.8 °F - 71.6 °F 78% 30.00 in 10.0 mi Calm Calm - N/A   Clear
8:57 PM 78.8 °F - 71.6 °F 78% 30.01 in 10.0 mi SSE 3.5 mph - N/A   Clear
9:17 PM 78.8 °F - 69.8 °F 74% 30.01 in 10.0 mi Calm Calm - N/A   Clear
9:37 PM 78.8 °F - 69.8 °F 74% 30.02 in 10.0 mi South 3.5 mph - N/A   Clear
9:57 PM 78.8 °F - 68.0 °F 69% 30.02 in 10.0 mi South 5.8 mph - N/A   Clear
10:17 PM 78.8 °F - 68.0 °F 69% 30.02 in 10.0 mi South 3.5 mph - N/A   Clear
10:37 PM 78.8 °F - 68.0 °F 69% 30.02 in 10.0 mi South 3.5 mph - N/A   Clear
10:57 PM 77.0 °F - 66.2 °F 69% 30.02 in 10.0 mi SSE 3.5 mph - N/A   Clear
11:18 PM 75.2 °F - 66.2 °F 73% 30.02 in 10.0 mi SSE 3.5 mph - N/A   Clear
11:39 PM 75.2 °F - 66.2 °F 73% 30.01 in 10.0 mi SSE 3.5 mph - N/A   Clear